FW1241 Weather Reports


Display with metric or nautical units.
time (UTC)temp
F
wind
direction
speed
MPH
gust
MPH
rain 1hr
in
rain 24hr
in
rain mn
in
humidity
%
barometer
mb
20260509091104 62 276 0.0 0.0 0.00 0.00 0.00 79 1012.3
20260509084604 62 275 0.0 0.0 0.00 0.00 0.00 76 1012.3
20260509084104 62 275 0.0 0.0 0.00 0.00 0.00 76 1012.3
20260509083604 63 275 0.0 0.0 0.00 0.00 0.00 75 1012.2
20260509083103 63 275 0.0 0.0 0.00 0.00 0.00 74 1012.2
20260509082104 64 276 0.0 0.0 0.00 0.00 0.00 75 1012.2
20260509081103 64 276 0.0 0.0 0.00 0.00 0.00 73 1012.1
20260509080104 64 276 0.0 0.0 0.00 0.00 0.00 71 1012.3
20260509075604 64 275 0.0 0.0 0.00 0.00 0.00 69 1012.3
20260509075104 64 275 0.0 0.0 0.00 0.00 0.00 68 1012.4
20260509074604 64 275 0.0 0.0 0.00 0.00 0.00 68 1012.3
20260509074103 65 275 0.0 0.0 0.00 0.00 0.00 68 1012.3
20260509073103 65 275 0.0 0.0 0.00 0.00 0.00 67 1012.3
20260509072104 65 275 0.0 0.0 0.00 0.00 0.00 66 1012.3
20260509071105 66 275 0.0 0.0 0.00 0.00 0.00 65 1012.2
20260509065604 67 276 0.0 0.0 0.00 0.00 0.00 63 1012.2
20260509065104 68 275 0.0 0.0 0.00 0.00 0.00 60 1012.2
20260509062104 70 276 0.0 0.0 0.00 0.00 0.00 55 1012.1
20260509061103 70 275 0.0 0.0 0.00 0.00 0.00 53 1012.0
20260509060104 71 276 0.0 0.0 0.00 0.00 0.00 53 1012.0
20260509054604 72 316 0.0 0.0 0.00 0.00 0.00 51 1011.9
20260509054103 73 322 0.0 0.0 0.00 0.00 0.00 51 1011.8
20260509053604 73 322 0.0 0.0 0.00 0.00 0.00 50 1011.9
20260509052603 73 338 0.0 1.0 0.00 0.00 0.00 50 1011.9
20260509045104 74 315 0.0 0.0 0.00 0.00 0.00 53 1011.7
20260509044604 74 315 0.0 0.0 0.00 0.00 0.00 52 1011.7
20260509044104 75 315 0.0 0.0 0.00 0.00 0.00 51 1011.7
20260509043603 75 315 0.0 0.0 0.00 0.00 0.00 51 1011.6
20260509042604 76 315 0.0 0.0 0.00 0.00 0.00 49 1011.5
20260509042104 76 315 0.0 0.0 0.00 0.00 0.00 48 1011.4
20260509041104 76 314 0.0 0.0 0.00 0.00 0.00 48 1011.3
20260509040604 76 315 0.0 0.0 0.00 0.00 0.00 49 1011.3
20260509040104 76 315 0.0 0.0 0.00 0.00 0.00 48 1011.2
20260509035104 77 315 0.0 0.0 0.00 0.00 0.00 46 1011.2
20260509033604 78 315 0.0 0.0 0.00 0.00 0.00 43 1011.1
20260509031604 79 304 0.0 1.0 0.00 0.00 0.00 41 1010.9
20260509031104 80 305 0.0 0.0 0.00 0.00 0.00 40 1010.8
20260509025104 82 312 0.0 0.0 0.00 0.00 0.00 36 1010.7
20260509024603 82 304 0.0 0.0 0.00 0.00 0.00 35 1010.6
20260509023103 83 312 0.0 1.0 0.00 0.00 0.00 33 1010.5
20260509022604 84 311 0.0 1.0 0.00 0.00 0.00 32 1010.5
20260509021603 85 306 0.0 3.0 0.00 0.00 0.00 30 1010.4
20260509014604 88 301 1.0 5.0 0.00 0.00 0.00 26 1010.3
20260509014104 88 320 0.0 2.0 0.00 0.00 0.00 26 1010.3
20260509013604 88 300 2.0 5.0 0.00 0.00 0.00 25 1010.2
20260509013103 88 269 1.0 3.0 0.00 0.00 0.00 27 1010.3
20260509010604 89 300 1.0 5.0 0.00 0.00 0.00 29 1010.3
20260509005103 89 296 1.0 7.0 0.00 0.00 0.00 29 1010.4
20260509004604 90 291 1.0 3.0 0.00 0.00 0.00 28 1010.5
20260509003604 90 267 2.0 5.0 0.00 0.00 0.00 29 1010.6
20260509003104 90 303 1.0 5.0 0.00 0.00 0.00 29 1010.7
20260509002603 90 306 0.0 3.0 0.00 0.00 0.00 30 1010.7
20260509001603 89 312 3.0 7.0 0.00 0.00 0.00 30 1010.8
20260509001104 90 298 2.0 5.0 0.00 0.00 0.00 30 1010.8
20260508234603 90 305 2.0 7.0 0.00 0.00 0.00 31 1011.0
20260508234104 90 298 1.0 5.0 0.00 0.00 0.00 31 1011.0
20260508233103 90 309 2.0 5.0 0.00 0.00 0.00 33 1011.1
20260508231605 90 307 3.0 7.0 0.00 0.00 0.00 33 1011.3
20260508230604 90 307 2.0 5.0 0.00 0.00 0.00 34 1011.5
20260508223104 89 319 2.0 6.0 0.00 0.00 0.00 40 1011.9
20260508222604 89 322 3.0 6.0 0.00 0.00 0.00 40 1012.0
20260508221104 89 307 3.0 7.0 0.00 0.00 0.00 38 1012.0
20260508220604 90 334 2.0 5.0 0.00 0.00 0.00 39 1012.2
20260508220104 90 311 2.0 5.0 0.00 0.00 0.00 38 1012.2
20260508215603 90 303 2.0 7.0 0.00 0.00 0.00 35 1012.2
20260508215104 90 303 1.0 6.0 0.00 0.00 0.00 37 1012.3
20260508214604 90 311 1.0 3.0 0.00 0.00 0.00 41 1012.3
20260508213103 90 309 1.0 2.0 0.00 0.00 0.00 43 1012.5
20260508212104 90 163 0.0 3.0 0.00 0.00 0.00 46 1012.6
20260508210104 88 99 0.0 1.0 0.00 0.00 0.00 45 1012.9
20260508203603 87 335 0.0 2.0 0.00 0.00 0.00 47 1013.4
20260508203104 87 128 0.0 2.0 0.00 0.00 0.00 49 1013.4
20260508202604 87 181 0.0 2.0 0.00 0.00 0.00 47 1013.5
20260508200104 86 176 0.0 3.0 0.00 0.00 0.00 50 1013.8
20260508195603 86 171 0.0 2.0 0.00 0.00 0.00 49 1013.9
20260508195104 85 187 1.0 3.0 0.00 0.00 0.00 48 1014.0
20260508193104 85 111 0.0 3.0 0.00 0.00 0.00 52 1014.2
20260508192604 85 207 0.0 5.0 0.00 0.00 0.00 52 1014.2
20260508191603 84 196 1.0 5.0 0.00 0.00 0.00 53 1014.5
20260508185604 82 184 0.0 2.0 0.00 0.00 0.00 55 1014.8
20260508184604 81 277 1.0 3.0 0.00 0.00 0.00 56 1015.0
20260508184103 81 228 0.0 3.0 0.00 0.00 0.00 57 1014.9
20260508183603 82 307 1.0 2.0 0.00 0.00 0.00 56 1015.0
20260508183103 81 200 0.0 2.0 0.00 0.00 0.00 58 1015.1
20260508182603 81 208 0.0 2.0 0.00 0.00 0.00 57 1015.1
20260508182104 81 177 0.0 3.0 0.00 0.00 0.00 57 1015.2
20260508181604 81 180 1.0 3.0 0.00 0.00 0.00 58 1015.2
20260508181104 80 170 1.0 3.0 0.00 0.00 0.00 58 1015.3
20260508180604 81 280 1.0 3.0 0.00 0.00 0.00 57 1015.3
20260508174103 78 310 1.0 3.0 0.00 0.00 0.00 61 1015.4
20260508173604 77 255 1.0 5.0 0.00 0.00 0.00 62 1015.4
20260508173104 77 336 1.0 3.0 0.00 0.00 0.00 61 1015.5
20260508171104 76 209 0.0 3.0 0.00 0.00 0.00 62 1015.5
20260508170604 76 204 2.0 5.0 0.00 0.00 0.00 62 1015.6
20260508170104 76 127 1.0 2.0 0.00 0.00 0.00 62 1015.6
20260508165604 76 190 1.0 3.0 0.00 0.00 0.00 65 1015.5
20260508165104 76 179 1.0 3.0 0.00 0.00 0.00 64 1015.5
20260508163604 75 182 1.0 5.0 0.00 0.00 0.00 66 1015.6
20260508163104 74 179 2.0 3.0 0.00 0.00 0.00 66 1015.6
20260508162604 74 130 1.0 3.0 0.00 0.00 0.00 67 1015.7
20260508162103 74 173 1.0 3.0 0.00 0.00 0.00 68 1015.7
20260508161604 74 178 0.0 5.0 0.00 0.00 0.00 70 1015.7
20260508161103 73 158 0.0 3.0 0.00 0.00 0.00 71 1015.7
20260508160104 73 177 2.0 5.0 0.00 0.00 0.00 70 1015.8
20260508155603 72 138 1.0 3.0 0.00 0.00 0.00 72 1015.7
20260508154104 71 195 0.0 5.0 0.00 0.00 0.00 74 1015.7
20260508153104 70 195 1.0 5.0 0.00 0.00 0.00 75 1015.8
20260508152604 70 144 1.0 3.0 0.00 0.00 0.00 76 1015.7
20260508151604 69 187 1.0 5.0 0.00 0.00 0.00 77 1015.8
20260508151104 69 105 0.0 3.0 0.00 0.00 0.00 78 1015.8
20260508150604 68 119 0.0 1.0 0.00 0.00 0.00 79 1015.8
20260508150104 68 117 0.0 1.0 0.00 0.00 0.00 79 1015.7
20260508144105 66 103 0.0 2.0 0.00 0.00 0.00 84 1015.8
20260508143604 65 164 0.0 1.0 0.00 0.00 0.00 85 1015.8
20260508141104 61 182 0.0 1.0 0.00 0.00 0.00 91 1015.5
20260508140603 61 197 0.0 2.0 0.00 0.00 0.00 91 1015.4
20260508140104 60 166 0.0 1.0 0.00 0.00 0.00 91 1015.4
20260508135603 60 132 0.0 1.0 0.00 0.00 0.00 91 1015.3
20260508134604 59 145 0.0 0.0 0.00 0.00 0.00 90 1015.1
20260508134104 59 145 0.0 0.0 0.00 0.00 0.00 90 1015.1
20260508133604 59 145 0.0 0.0 0.00 0.00 0.00 90 1015.0
20260508133104 59 146 0.0 0.0 0.00 0.00 0.00 90 1015.0
20260508132603 59 146 0.0 0.0 0.00 0.00 0.00 90 1014.9
20260508131605 59 146 0.0 0.0 0.00 0.00 0.00 90 1014.9
20260508124603 60 146 0.0 0.0 0.00 0.00 0.00 90 1014.7
20260508124103 60 146 0.0 0.0 0.00 0.00 0.00 90 1014.7
20260508122104 60 146 0.0 0.0 0.00 0.00 0.00 89 1014.5
20260508121603 60 146 0.0 0.0 0.00 0.00 0.00 89 1014.6
20260508120104 61 146 0.0 0.0 0.00 0.00 0.00 89 1014.5
20260508114103 61 146 0.0 0.0 0.00 0.00 0.00 88 1014.3
20260508113104 61 146 0.0 0.0 0.00 0.00 0.00 88 1014.3
20260508112604 61 146 0.0 0.0 0.00 0.00 0.00 88 1014.2
20260508112104 61 146 0.0 0.0 0.00 0.00 0.00 88 1014.1
20260508111603 61 146 0.0 0.0 0.00 0.00 0.00 88 1014.1
20260508104604 62 146 0.0 0.0 0.00 0.00 0.00 87 1014.0
20260508103604 63 146 0.0 0.0 0.00 0.00 0.00 85 1014.0
20260508100603 63 148 0.0 0.0 0.00 0.00 0.00 87 1014.0
20260508100103 63 148 0.0 0.0 0.00 0.00 0.00 87 1014.0
20260508095604 63 148 0.0 0.0 0.00 0.00 0.00 87 1014.0
20260508094104 63 148 0.0 0.0 0.00 0.00 0.00 87 1014.0
20260508092104 64 96 0.0 0.0 0.00 0.00 0.00 85 1014.0